STARLINK-11091 [DTC]

Last updated on Fri Oct 04 2024 00:02:04 GMT+0000 (Coordinated Universal Time)

1 61207U 24171H 24277.58334491 -.00932302 00000+0 -51190-2 0 9998 2 61207 53.1626 231.5447 0000639 120.2443 320.0580 15.81440466 3236
UTC large
Height (km)
Speed (km/s)
/
Latitude / Longitude
Inclination (degrees)
Orbital Period (minutes)
Azimuth
Elevation
Range (km)
Doppler Factor

Next 0 passes for location: London (51.5072 / 0.1276)

Sorry there are no passes over London.